Theta_e
297 296 296 296 296 296 295 295 295 295 295 295 295 295 296 296 296 296 297 298 298 298 299 299 299 299 299 299 300 300 300 300 300 299 299 299 299 298 298 298 298 297 297 297 296 296 295 294 294 294 294 294 294 294 294 293 293 293 293 293 293 293 293 293 293 293 293 293 294 294 295 295 295 295 296 295 295 295 295 295 295 296 296 296 296 296
295 295 295 295 295 295 295 294 294 295 295 295 295 295 295 295 296 296 297 297 298 298 298 298 298 299 299 299 299 300 300 300 299 299 299 298 298 298 297 297 297 296 296 296 295 294 294 294 294 294 294 294 294 293 293 292 292 292 292 292 292 292 292 292 292 292 293 293 293 294 294 294 294 295 295 294 294 294 294 294 295 295 295 295 295 295
295 295 295 295 294 294 294 294 294 294 294 295 295 295 295 295 295 296 297 297 298 298 298 298 298 298 298 298 299 299 299 298 298 298 298 297 297 297 297 296 296 295 295 294 294 294 293 293 294 294 294 294 293 293 293 292 292 292 292 292 292 292 292 292 292 292 293 293 293 293 294 294 294 294 294 294 294 294 294 294 294 294 294 294 295 295
295 295 294 294 294 294 293 293 293 293 294 294 295 295 294 295 295 296 296 297 297 297 297 297 297 297 297 297 297 297 297 297 297 297 297 296 296 296 295 295 295 294 294 294 294 294 294 294 294 294 293 293 293 292 292 292 292 291 291 291 291 291 291 292 292 293 293 293 293 293 293 293 293 293 293 293 293 293 293 293 293 294 294 294 294 295
295 294 294 294 293 293 293 293 293 293 293 294 294 294 294 295 295 296 296 296 296 296 297 297 297 297 297 296 296 296 296 296 296 296 295 295 295 295 294 294 294 294 293 294 294 294 293 293 293 293 292 292 292 291 291 291 291 291 291 291 291 291 291 291 292 292 293 293 293 293 293 293 293 293 293 293 293 293 293 293 293 293 294 294 294 294
294 294 293 293 293 293 293 293 293 293 293 293 293 294 294 294 295 295 295 295 295 296 296 296 296 296 296 296 296 296 296 295 295 295 295 294 294 294 294 293 293 293 293 293 293 293 292 292 292 291 291 291 291 291 290 290 290 290 290 290 290 290 290 290 291 291 292 292 292 292 292 292 292 292 292 292 292 292 292 292 293 293 293 293 294 294
294 293 293 293 293 293 293 293 293 293 293 293 293 293 293 293 294 294 294 294 294 294 295 295 294 294 294 294 294 294 294 294 294 294 294 293 293 293 293 293 292 292 292 292 292 291 291 291 290 290 290 290 290 290 289 289 289 289 289 289 289 289 289 289 290 290 291 291 291 292 292 292 292 292 292 292 292 292 292 292 292 292 293 293 293 294
293 293 293 293 293 293 293 292 292 293 293 293 293 293 293 293 293 293 293 294 294 293 294 293 293 293 293 292 293 293 292 292 292 292 292 292 292 292 292 292 291 291 291 291 290 290 290 290 290 290 289 289 289 289 289 288 288 288 288 288 287 287 287 288 289 289 290 290 291 291 291 291 291 291 291 291 291 291 291 291 291 292 292 293 293 293
294 293 293 293 293 293 293 292 292 293 293 292 293 293 294 294 293 293 293 293 293 292 292 292 292 292 291 291 291 291 291 290 290 290 290 290 290 290 290 290 290 290 290 290 290 290 289 289 289 289 289 289 288 288 288 288 287 287 287 286 286 286 286 287 288 288 289 290 290 290 290 291 291 291 291 291 291 291 291 291 291 291 292 292 293 293
294 294 293 293 293 293 293 293 292 292 292 292 292 293 293 294 294 294 293 293 292 291 291 291 291 291 291 290 289 289 290 289 289 289 289 289 289 289 289 289 289 289 290 290 290 289 289 289 289 289 288 288 288 287 287 287 287 286 286 286 285 285 285 286 287 288 288 289 289 290 290 290 290 290 290 290 290 290 290 291 291 291 291 292 292 293
294 293 293 292 292 292 292 292 292 292 292 292 292 292 293 293 293 294 294 294 292 291 290 290 290 290 290 289 289 289 289 289 289 289 289 289 289 288 288 288 288 289 289 289 289 289 289 288 288 288 288 287 287 287 287 286 286 286 286 285 285 285 285 286 287 287 288 288 289 289 289 289 290 290 290 290 290 290 290 291 291 291 291 292 292 292
293 293 293 292 292 292 292 292 291 291 291 292 293 293 293 292 292 292 293 293 293 292 290 290 289 289 289 289 288 288 288 288 288 288 288 288 288 288 288 288 288 288 288 288 288 288 288 287 287 287 287 286 286 286 286 286 286 285 285 284 284 284 284 285 286 286 287 288 288 288 289 289 289 289 289 290 290 290 291 291 291 291 291 291 292 292
292 292 292 292 292 292 292 292 292 292 292 293 293 293 293 291 290 290 291 291 291 290 289 289 289 288 288 288 288 288 288 288 288 287 287 287 287 287 287 287 287 287 287 287 287 287 287 286 286 286 286 286 286 286 286 285 285 284 284 283 283 283 283 284 285 286 287 287 288 288 288 289 289 289 289 290 290 291 291 291 291 291 291 292 292 292
292 292 292 292 292 292 292 292 292 292 292 292 291 291 290 289 289 289 289 290 290 289 289 289 289 288 288 288 288 288 288 288 287 287 287 287 287 287 287 287 286 286 286 286 286 286 286 286 286 286 286 286 285 285 285 284 284 283 283 283 283 283 283 283 284 284 286 286 287 288 288 289 289 289 290 290 290 291 291 291 291 291 291 292 292 292
292 292 293 293 293 292 292 292 292 292 291 290 289 289 288 288 288 289 289 290 289 288 288 289 289 289 288 288 288 288 288 287 287 287 287 287 287 287 287 286 286 286 286 286 286 286 286 286 286 285 285 284 284 284 283 283 283 283 283 283 283 283 283 284 284 285 286 287 287 288 289 289 289 290 290 290 290 291 291 291 291 291 291 291 292 292
293 293 293 293 293 292 291 290 290 290 289 288 288 288 288 288 288 288 289 289 289 288 289 289 290 289 288 287 287 287 287 286 286 286 287 287 287 286 286 286 286 286 286 286 286 286 286 285 285 284 284 283 283 283 283 283 283 283 284 284 285 285 285 286 286 287 287 288 288 289 289 289 289 290 290 290 290 290 291 291 291 291 291 291 291 291
291 292 292 292 291 291 289 289 289 288 288 287 287 287 287 287 287 287 287 288 288 288 288 289 289 290 289 288 287 286 286 286 285 286 286 287 287 286 286 286 286 286 286 286 286 285 285 284 284 283 283 283 283 283 283 283 283 284 284 285 286 286 287 287 287 288 288 288 289 289 289 289 289 290 290 290 290 290 290 290 290 291 291 291 291 291
290 290 291 291 290 289 289 288 288 287 287 287 287 286 286 286 286 286 286 287 287 288 288 288 288 289 289 289 287 285 286 286 285 285 286 287 287 287 287 286 286 285 285 285 284 284 284 283 283 283 283 282 283 283 283 283 284 284 284 285 285 286 286 287 287 287 288 288 288 289 289 289 289 289 290 290 290 290 290 290 290 290 291 291 291 291
290 290 290 290 289 289 288 288 288 288 287 287 287 287 286 286 286 286 286 287 287 287 288 288 288 288 288 289 287 286 286 286 285 285 286 286 287 287 286 286 285 284 283 283 283 283 283 283 283 282 282 282 283 283 283 283 283 284 284 284 285 285 286 286 286 287 287 287 287 288 288 289 289 289 289 290 290 290 290 290 290 290 290 291 291 291
289 289 289 289 289 289 288 288 288 287 287 287 286 287 287 286 286 286 286 286 286 287 287 287 287 287 287 287 287 286 285 285 285 285 285 285 286 286 285 284 283 283 283 283 283 283 283 283 283 283 282 283 283 283 283 283 283 283 284 284 284 285 285 285 286 286 286 287 287 287 287 288 288 289 289 289 290 290 290 290 290 290 290 290 290 290
289 289 288 288 288 289 288 288 287 287 286 286 286 286 287 287 287 287 286 286 286 286 286 286 287 287 286 286 286 285 285 284 284 284 284 284 285 285 284 283 282 282 283 283 283 283 283 283 283 283 283 283 283 283 283 283 283 284 284 284 284 284 285 285 286 286 287 287 287 287 287 288 288 288 289 289 289 289 289 290 290 290 290 290 290 290
289 288 288 288 288 288 288 287 287 286 286 286 286 287 287 287 287 287 287 286 286 286 286 286 286 286 285 285 285 284 284 284 283 283 283 283 284 284 284 283 282 282 283 283 284 284 283 283 283 283 283 283 283 283 283 283 284 284 284 284 284 284 284 285 285 286 287 287 287 287 288 288 288 289 289 289 289 289 289 289 289 290 290 290 290 290
288 288 287 287 287 287 287 286 286 285 285 285 286 286 286 286 286 286 286 286 286 286 286 285 285 284 284 284 284 283 283 283 282 282 283 283 284 284 283 283 282 282 283 283 284 284 283 283 283 283 283 283 283 284 284 284 284 284 283 283 284 284 284 285 285 286 287 287 287 288 288 288 288 289 289 289 289 289 289 289 289 289 289 289 289 289
287 287 287 286 286 286 286 286 285 285 285 285 285 285 285 285 285 285 285 284 284 285 284 284 284 284 284 284 284 283 283 282 282 282 282 283 283 284 284 283 283 283 283 283 284 283 283 283 283 283 283 283 283 284 284 284 284 284 284 284 284 285 285 286 286 287 287 287 287 288 288 288 288 288 288 288 288 288 288 289 289 289 289 289 289 289
287 287 286 286 286 285 285 285 285 285 284 284 284 284 284 284 284 284 284 284 284 284 284 284 285 285 285 285 285 284 283 282 282 282 282 283 283 283 283 283 283 283 283 283 283 283 283 283 283 284 284 283 283 284 284 284 284 284 284 285 285 285 286 286 286 286 286 287 287 287 287 287 287 287 287 287 288 288 288 288 288 288 288 288 288 288
286 286 286 285 285 285 285 285 285 285 284 284 284 284 284 284 284 284 284 284 284 284 284 285 285 286 286 286 285 284 283 282 282 282 282 282 283 283 284 283 283 282 282 282 282 283 283 283 284 284 284 283 283 283 283 284 284 284 285 285 285 285 285 285 285 286 286 286 286 286 286 286 286 286 287 287 287 287 287 287 287 287 288 288 288 288
286 285 285 285 285 285 284 284 284 284 284 284 284 284 284 284 284 285 285 285 285 285 285 286 286 286 286 286 285 285 284 283 282 282 281 282 282 283 284 283 282 282 282 282 282 283 283 283 284 284 284 283 283 283 283 283 284 284 284 284 284 285 285 285 285 285 285 285 285 285 285 285 285 286 286 286 286 286 287 287 287 287 287 287 287 288
285 285 285 285 285 284 284 284 284 284 284 283 283 283 283 284 284 285 285 285 286 285 285 285 285 285 285 285 285 284 284 283 282 282 281 281 282 283 284 283 282 282 282 282 283 283 283 284 284 283 283 283 282 282 282 283 284 284 284 284 284 284 284 284 284 284 284 285 285 285 285 285 285 285 285 285 286 286 286 287 287 287 287 287 287 287
285 284 284 284 284 284 284 283 283 283 283 283 283 283 283 283 284 284 285 285 285 285 285 285 285 285 285 284 284 284 283 283 282 282 281 281 282 283 283 283 282 282 282 282 283 284 284 284 283 283 283 282 283 283 283 283 283 283 283 284 284 284 284 284 284 284 284 284 284 284 284 284 284 285 285 285 285 286 286 286 286 286 286 287 287 287
284 284 283 283 283 283 283 283 283 283 283 283 283 282 282 282 282 283 283 284 284 284 284 284 284 284 284 284 283 283 283 283 282 281 281 282 283 283 283 283 283 283 282 282 283 285 285 285 284 283 282 282 283 283 283 283 283 283 283 283 284 284 284 284 284 284 284 284 284 284 284 284 284 284 284 284 285 285 285 285 285 286 286 286 286 287
283 283 283 283 283 283 283 283 283 283 282 282 282 282 282 281 281 281 281 282 282 283 283 283 283 283 283 283 283 284 284 283 282 281 281 282 283 283 283 283 283 283 282 282 283 285 285 285 284 283 283 283 283 283 283 283 283 283 283 283 284 284 284 284 284 284 284 284 284 284 284 284 284 284 284 284 284 284 284 285 285 285 285 286 286 286
283 283 283 282 282 282 282 282 282 282 282 282 281 281 281 281 280 280 280 280 281 281 282 282 282 283 283 283 283 284 284 283 282 281 281 281 282 282 282 283 283 283 283 282 282 283 284 285 285 284 284 284 284 284 284 283 283 283 283 283 283 284 284 284 284 284 284 284 284 284 284 284 284 284 284 283 283 284 284 284 284 284 285 285 285 285
282 282 282 282 282 282 282 281 281 281 281 281 280 280 280 280 280 279 279 279 279 280 281 281 282 282 282 282 282 283 283 283 282 282 281 281 282 282 283 283 283 283 283 283 282 282 283 283 284 283 283 284 284 284 284 284 283 283 283 283 283 283 283 283 283 283 283 283 283 283 283 283 283 283 283 283 283 283 283 283 283 284 284 284 285 285
282 282 282 282 282 281 281 281 280 280 280 280 279 279 279 279 279 279 279 279 279 280 280 281 281 282 282 282 282 282 283 283 282 282 281 281 281 282 283 283 283 283 283 283 283 283 283 283 283 283 284 284 284 284 284 284 284 283 283 283 283 283 283 283 283 283 283 283 283 283 283 283 283 283 283 283 283 283 282 282 282 283 283 284 284 284
282 282 282 282 282 281 281 280 280 280 279 279 279 279 279 279 279 279 279 280 280 280 280 280 281 281 282 282 282 283 283 283 282 281 281 281 281 282 282 282 283 283 283 282 282 282 283 283 283 283 283 284 284 284 284 284 284 283 283 283 283 283 283 283 283 283 283 283 283 283 283 283 283 283 283 283 282 282 282 282 282 282 283 283 284 284
282 282 282 282 281 281 280 280 280 279 279 279 279 279 279 279 279 279 279 280 280 280 280 280 280 280 281 281 281 282 282 282 282 281 281 281 281 281 282 282 282 282 282 282 282 282 282 283 283 283 283 283 283 284 284 284 284 284 283 283 283 283 283 283 283 283 283 283 283 283 283 283 283 283 283 283 283 282 282 282 282 282 283 283 283 284
282 282 282 282 281 280 280 279 279 279 279 279 279 279 279 279 279 279 279 280 280 280 280 280 280 280 280 280 280 281 281 281 281 281 281 281 281 281 282 282 282 282 282 282 282 282 282 282 282 282 282 283 284 284 285 284 284 284 284 284 283 283 283 283 283 283 283 283 283 283 283 283 283 283 283 283 283 283 283 283 282 282 283 283 283 283
282 282 282 281 280 280 279 279 279 279 279 279 279 279 279 279 279 279 279 279 280 280 280 280 280 280 280 280 280 280 280 281 281 281 281 281 281 281 281 281 281 281 281 281 282 282 281 282 282 282 283 283 284 284 284 284 284 284 284 283 283 283 283 283 283 283 283 283 283 283 283 283 283 283 283 283 283 283 283 283 283 283 283 283 283 283
282 282 281 281 280 279 279 279 279 279 279 278 278 278 278 278 278 279 279 279 279 279 279 279 279 280 280 280 280 280 280 280 280 280 280 280 280 280 280 281 281 281 281 281 281 281 281 281 281 282 282 283 283 283 283 283 283 283 283 283 283 283 284 284 284 284 283 283 283 283 283 283 283 283 283 283 283 283 283 283 283 283 283 283 283 283
281 281 281 280 280 279 279 279 278 278 278 278 278 278 278 278 278 278 278 278 279 279 279 279 279 279 279 280 280 280 280 280 281 280 280 280 280 280 280 280 280 281 281 281 281 281 281 281 281 281 281 282 282 282 282 282 282 283 283 283 283 284 284 284 283 283 283 283 283 283 283 283 283 283 283 283 283 283 283 283 283 283 283 283 283 283
281 280 280 279 279 279 278 278 278 278 278 278 278 277 278 278 278 278 278 278 278 278 278 278 279 279 279 280 281 281 281 281 281 281 280 280 280 280 280 279 280 280 280 280 280 280 280 281 281 281 281 281 281 281 282 282 282 282 283 283 283 283 283 283 283 283 283 283 283 283 283 283 283 283 283 283 283 283 283 283 283 283 283 283 283 283
280 280 279 279 278 278 278 278 278 277 277 277 277 277 277 278 278 278 278 278 278 279 279 279 279 279 280 280 280 281 281 281 281 281 281 281 280 280 280 280 280 280 280 280 280 280 280 280 280 281 281 281 281 281 282 282 282 282 282 283 283 283 283 283 283 283 283 283 283 283 283 282 282 282 282 282 282 282 282 282 282 282 283 283 283 283
279 279 279 279 278 278 278 277 277 277 277 277 277 277 277 277 278 278 278 278 278 279 279 279 279 279 280 280 281 281 281 281 281 281 280 280 280 280 280 280 280 280 280 280 280 280 280 280 281 281 281 281 281 281 281 282 282 282 282 282 282 283 283 283 283 283 283 283 283 282 282 282 282 282 282 282 282 282 282 282 282 282 283 283 283 283
279 278 278 278 278 278 278 278 278 277 277 277 277 278 278 278 277 277 277 278 278 279 279 279 279 279 280 280 281 282 282 281 281 280 280 280 280 280 280 280 280 280 280 280 280 280 280 280 281 281 281 281 281 281 281 281 281 282 282 282 282 282 283 283 283 283 282 282 282 282 282 282 282 282 282 282 282 282 282 282 282 282 282 283 283 283
278 278 278 278 278 278 279 278 278 278 278 278 278 278 278 278 277 277 277 278 278 279 279 279 279 280 280 281 282 282 282 282 281 280 280 280 280 280 280 280 279 280 279 280 280 280 280 280 280 281 281 281 281 281 281 281 281 281 282 282 282 282 282 282 282 282 282 282 282 282 282 282 282 282 282 282 282 282 282 282 282 282 283 283 283 283
278 278 279 279 279 279 279 279 279 279 279 278 278 278 278 277 277 277 277 278 278 278 279 279 279 280 281 282 282 282 282 282 281 281 280 280 280 280 279 279 279 279 279 280 280 280 280 280 280 280 281 281 281 281 281 281 281 281 282 282 282 282 282 282 282 282 282 282 282 282 282 282 282 282 282 282 282 282 282 283 283 283 283 283 283 283
278 278 279 279 279 279 279 279 279 279 279 278 278 278 278 277 277 277 277 277 278 278 279 279 279 280 281 281 282 282 282 282 281 281 281 281 280 280 280 280 279 279 279 279 279 280 280 280 280 280 280 280 280 281 281 281 281 282 282 282 282 282 282 282 282 282 282 282 282 282 282 282 282 282 282 282 282 282 283 283 283 283 283 283 283 283
278 278 279 279 279 279 279 279 279 279 279 278 278 278 278 277 277 277 277 277 278 278 279 279 280 280 281 281 281 281 281 281 281 281 281 281 280 280 280 280 280 280 279 279 279 279 280 280 280 280 280 280 280 281 281 281 282 282 282 282 282 282 282 282 282 282 282 282 282 282 282 282 282 282 282 282 282 283 283 283 283 283 283 283 283 283
278 278 278 279 279 279 279 279 279 279 279 278 278 278 278 278 277 277 277 277 278 278 279 279 280 280 280 281 281 281 280 280 280 280 280 280 280 280 280 280 280 280 280 280 280 280 280 280 280 280 280 280 280 281 281 281 282 282 282 282 282 282 282 282 282 282 282 282 282 282 282 282 282 282 282 282 282 282 283 283 283 283 283 283 283 283
277 278 278 278 278 279 279 279 279 279 279 278 278 278 278 278 277 277 277 277 277 278 278 279 279 280 280 280 281 280 280 280 280 280 280 280 280 280 280 280 280 280 280 280 280 280 281 281 281 281 281 281 281 281 281 281 282 282 282 282 282 282 282 282 282 282 282 282 282 282 282 282 282 282 282 282 282 282 282 282 282 283 283 283 283 283
277 277 277 277 278 278 278 278 278 278 278 278 278 278 278 278 278 278 277 277 277 278 278 278 279 279 280 280 280 280 280 280 280 280 280 280 280 280 280 280 280 280 280 280 281 281 281 282 282 282 282 282 281 281 281 282 282 282 282 282 282 282 282 282 283 283 283 283 283 283 283 282 282 282 282 282 282 282 282 282 282 283 283 283 283 283
Wind_Speed
3 2 1 0 1 1 2 3 3 3 3 4 5 6 6 6 5 5 4 3 2 3 4 5 6 7 8 9 10 10 9 9 9 9 9 9 9 10 11 11 12 12 13 13 14 13 12 10 9 8 7 7 7 7 7 7 7 7 7 8 9 10 11 12 12 13 13 13 13 13 13 13 12 12 11 10 10 10 10 10 10 11 11 12 12 12
1 2 2 2 2 2 1 2 3 2 2 3 4 5 5 5 4 3 2 2 3 4 5 6 7 8 8 9 11 11 12 12 12 11 11 11 11 11 12 12 12 13 13 13 12 11 9 7 6 6 6 7 6 6 6 6 7 7 8 9 10 11 12 12 13 13 13 13 13 13 13 12 12 12 12 11 11 11 11 11 12 12 12 13 13 13
2 2 3 3 3 2 1 1 2 2 2 2 3 4 4 3 2 1 3 4 4 5 6 7 7 8 8 9 10 11 12 12 11 11 11 12 12 12 12 13 13 12 12 10 9 7 6 6 6 6 6 6 5 5 5 6 6 7 8 9 10 11 11 12 12 12 12 12 12 12 12 11 11 11 11 11 11 11 12 12 12 12 12 13 13 13
3 3 2 3 3 2 2 1 1 1 2 2 2 2 2 1 1 2 3 4 4 5 6 7 7 7 8 8 9 10 10 11 11 11 11 12 12 12 12 12 12 11 9 7 6 6 6 5 5 5 5 4 4 5 5 6 7 8 8 9 10 10 11 11 11 11 11 11 11 11 11 11 10 10 10 11 11 11 11 11 12 12 12 12 12 12
3 3 3 3 2 2 2 2 2 1 1 1 1 1 1 1 2 4 5 5 6 6 7 7 8 9 9 10 10 11 11 12 12 12 12 12 11 11 11 11 10 8 6 6 5 5 5 4 4 4 4 4 5 5 6 7 8 8 9 10 10 11 11 11 11 11 11 11 11 11 11 11 10 10 10 10 11 11 11 11 11 11 12 12 11 11
3 3 4 3 2 2 2 2 2 1 1 1 1 1 2 3 4 5 5 6 7 8 8 9 10 11 11 12 12 13 13 14 14 13 12 12 11 11 9 8 7 6 5 5 5 4 4 3 4 4 4 5 6 6 7 8 9 10 10 11 11 12 12 12 12 12 12 12 11 11 11 11 11 11 11 11 11 11 11 12 12 12 12 12 11 11
4 4 4 3 3 2 1 1 1 1 0 1 2 3 4 4 5 6 7 8 8 9 10 11 11 11 11 12 13 13 13 13 13 12 11 11 11 10 9 8 6 5 4 4 4 4 4 4 4 5 6 7 7 8 9 10 11 12 12 13 13 13 13 13 13 13 13 13 12 12 12 12 12 12 12 12 12 12 12 12 12 12 12 12 12 12
4 4 4 3 2 2 1 0 0 0 0 1 1 2 3 4 5 6 6 7 7 8 8 9 8 8 8 8 9 9 8 8 7 7 7 8 8 8 8 8 7 6 6 5 5 5 6 6 7 8 9 10 10 11 12 13 14 14 15 16 16 16 16 15 15 14 14 14 13 13 13 13 13 13 13 13 13 13 13 13 13 13 13 12 12 12
5 4 3 3 2 2 1 0 0 0 0 0 0 1 1 2 2 3 3 3 4 4 4 3 3 3 3 4 5 5 4 4 3 2 2 3 3 4 5 6 7 8 8 8 8 9 9 10 11 11 12 13 14 15 15 16 17 18 18 19 19 19 18 17 16 15 15 14 14 14 14 14 14 14 14 14 14 14 13 13 13 13 13 12 12 12
5 4 3 3 3 2 2 1 0 0 0 0 0 0 0 1 1 0 1 1 0 1 1 1 1 0 1 2 3 4 4 4 4 4 4 4 4 5 5 6 7 9 10 11 11 11 12 13 14 14 15 16 17 17 18 19 19 20 21 21 21 20 19 17 16 15 15 15 15 15 14 14 14 14 14 14 14 14 13 13 13 13 12 12 12 12
4 4 3 3 3 2 2 2 1 1 1 1 1 1 1 0 1 1 1 1 1 0 0 1 2 2 2 3 4 5 6 6 6 7 7 7 8 8 8 9 9 10 11 12 12 13 14 14 15 16 17 18 18 19 20 20 21 22 22 22 21 20 18 17 16 15 14 14 14 14 14 14 14 14 14 13 13 13 13 13 12 12 12 12 12 12
4 4 3 3 3 2 2 2 2 2 2 1 1 2 2 1 0 1 1 1 1 0 0 2 4 5 6 6 6 7 7 6 6 7 9 9 10 10 10 10 11 11 12 12 13 14 14 15 16 17 18 19 20 21 22 22 23 23 23 22 21 19 17 16 15 14 14 14 14 14 14 14 14 13 13 13 13 12 12 12 12 12 12 12 11 11
4 3 3 3 3 3 2 2 2 2 2 2 1 1 1 1 1 1 2 2 2 2 2 3 4 6 7 7 7 7 7 7 7 7 8 8 9 10 10 10 10 10 11 12 12 13 14 15 17 18 19 21 22 23 23 24 24 23 22 20 18 17 16 15 14 14 13 13 13 13 13 13 13 13 12 12 12 12 12 11 11 11 12 12 12 12
4 3 3 3 3 3 3 2 2 2 2 1 1 1 0 1 1 1 2 2 3 4 5 4 3 5 8 7 7 7 7 6 7 7 7 7 8 10 11 11 10 10 11 11 11 12 13 15 17 19 21 22 23 23 23 22 21 20 18 16 15 14 13 13 12 12 12 11 12 12 12 12 12 12 11 11 11 11 11 11 11 12 12 12 12 12
4 4 3 3 3 3 3 2 2 1 1 1 1 1 1 1 1 1 2 2 2 3 4 4 3 4 6 7 7 7 7 6 6 5 5 6 8 10 12 12 11 11 11 11 11 12 14 16 17 19 20 21 21 21 20 18 17 15 14 12 11 10 10 10 9 9 9 10 10 11 11 11 11 11 11 11 11 11 11 11 12 12 12 12 12 13
3 3 3 3 3 3 2 2 1 1 1 1 2 2 0 0 0 1 1 1 2 2 3 4 4 4 5 6 7 7 7 6 5 5 5 6 7 9 12 12 12 11 11 11 12 13 14 15 17 18 18 18 18 18 16 15 13 12 10 10 9 8 8 8 8 8 9 9 10 10 10 11 11 11 11 11 11 11 12 12 12 12 13 13 13 13
2 2 2 2 2 3 3 2 2 2 2 2 2 2 2 1 1 0 1 1 1 2 2 3 4 4 3 3 4 6 5 4 4 5 6 7 7 9 12 13 12 12 12 12 13 13 14 14 14 14 14 15 16 15 14 12 11 10 9 8 8 7 7 8 8 9 9 10 10 10 10 11 11 11 11 11 12 12 12 12 13 13 13 13 14 14
2 2 2 2 2 3 3 3 3 2 2 2 2 2 2 1 1 0 0 1 2 2 3 3 3 4 4 3 3 4 5 5 5 6 7 8 9 10 12 13 14 14 14 13 13 12 12 12 12 12 13 14 14 13 12 11 11 10 9 9 8 8 8 9 9 9 10 10 10 10 11 11 11 11 12 12 12 12 13 13 13 13 14 14 14 14
3 2 2 2 3 3 3 3 2 2 2 2 2 2 1 0 0 1 1 1 2 2 3 3 4 5 6 5 5 6 7 8 8 8 8 9 10 10 11 12 13 13 12 11 11 10 10 11 13 14 15 14 14 13 13 12 11 11 10 10 10 10 10 10 10 10 10 10 10 11 11 11 12 12 12 12 13 13 13 13 13 14 14 14 14 15
3 3 3 3 3 3 3 2 2 2 2 2 1 1 1 0 1 1 1 1 2 3 3 4 5 5 5 5 5 7 10 11 10 8 8 10 9 9 11 12 11 11 10 10 9 10 10 11 13 13 14 14 13 13 13 13 12 12 11 11 11 11 11 11 11 11 11 11 11 11 12 12 12 12 12 13 13 13 13 13 14 14 14 14 15 15
3 3 3 3 2 2 2 2 2 2 2 1 1 0 1 1 2 2 2 2 3 3 4 5 5 5 5 5 5 8 12 11 8 6 7 8 8 8 9 10 10 9 9 9 9 9 10 11 12 12 13 12 13 13 13 14 13 13 13 12 12 11 11 11 11 11 11 12 12 12 12 12 12 12 12 13 13 13 13 14 14 14 14 15 15 16
2 3 3 3 2 2 2 2 2 2 1 0 0 1 2 2 2 3 3 3 3 4 4 5 5 5 6 7 8 10 13 11 8 5 6 7 7 7 7 9 10 9 9 8 8 8 9 10 11 12 12 12 12 12 13 13 14 13 13 13 12 12 12 11 11 11 11 11 11 11 11 11 11 12 12 12 12 13 13 14 14 14 15 15 16 16
3 3 3 3 3 3 3 2 2 1 1 0 0 1 2 2 3 3 3 4 4 5 5 6 7 9 11 11 11 12 11 10 7 6 5 6 6 6 6 8 9 8 8 8 7 8 9 11 12 12 11 11 11 12 12 13 13 13 13 12 12 11 11 11 10 10 10 10 10 10 10 11 11 11 12 12 12 13 14 14 15 15 16 16 17 17
3 3 3 3 3 3 3 2 1 1 2 2 2 3 4 5 5 5 5 6 6 6 6 7 9 10 9 8 7 8 9 8 7 5 4 6 7 7 7 7 8 8 8 8 8 10 11 12 12 10 10 10 11 11 11 11 11 11 10 10 9 9 9 9 9 9 9 10 10 10 11 11 12 12 13 13 14 14 15 15 16 16 17 18 18 19
3 4 4 3 3 2 2 1 0 1 2 3 4 5 6 7 8 8 9 8 7 6 6 6 7 7 6 5 5 5 7 8 7 5 4 5 6 7 7 7 7 7 8 10 11 11 11 11 10 8 7 8 10 10 9 8 7 7 7 7 7 7 8 9 9 10 10 11 12 12 13 13 14 14 15 15 16 16 16 17 17 17 18 19 19 20
4 4 4 3 3 3 3 2 1 0 1 3 4 6 6 7 8 8 8 7 6 6 6 6 7 7 6 5 4 5 6 8 9 7 5 5 6 7 6 6 6 7 9 11 12 12 11 9 8 6 5 6 8 8 7 7 7 7 7 8 9 9 10 11 11 12 13 13 13 14 15 15 16 16 17 17 17 17 17 17 17 18 18 18 19 19
5 6 5 5 4 4 3 3 2 2 2 2 4 5 5 6 6 6 6 6 6 5 6 6 6 6 6 5 5 5 5 7 9 8 6 5 6 6 6 6 7 9 10 12 12 11 10 8 7 5 4 5 6 7 7 8 9 9 9 9 10 10 11 12 12 13 13 14 15 15 16 16 17 17 17 17 17 16 16 16 16 17 17 17 18 18
5 6 5 5 5 5 5 5 6 6 7 7 6 6 6 6 7 7 7 6 6 6 6 7 7 6 6 5 5 5 5 6 8 9 7 5 4 5 5 6 7 9 10 11 11 10 8 6 5 4 4 5 5 5 6 7 8 8 8 9 9 10 11 12 13 14 14 15 15 16 16 16 16 16 16 16 15 15 15 15 15 16 16 16 16 17
6 6 7 8 8 8 9 9 10 11 11 11 10 9 8 8 8 8 8 7 7 7 7 8 7 7 7 7 7 7 6 6 7 8 6 4 4 5 5 6 7 7 8 9 9 7 5 4 3 3 4 4 4 3 4 5 5 6 8 9 10 11 12 13 14 14 15 15 15 15 15 15 15 15 15 15 15 15 15 15 15 15 15 15 15 15
6 7 8 9 10 11 11 11 12 12 13 12 12 11 10 10 10 9 9 8 8 7 8 8 8 8 7 7 7 6 5 5 6 6 4 2 3 4 5 5 6 6 7 7 6 5 3 2 2 3 3 3 3 3 4 5 7 8 10 11 12 12 12 13 13 13 13 14 14 14 14 14 15 15 15 16 16 16 16 15 15 14 14 14 14 15
5 6 7 8 10 11 11 12 13 13 13 12 12 12 12 12 12 12 11 10 9 8 8 8 8 8 7 6 4 3 3 3 5 6 4 2 3 5 5 5 5 5 5 5 4 3 2 2 1 2 3 4 5 6 7 8 9 10 10 10 10 10 10 10 10 11 11 12 12 13 14 14 15 16 16 16 17 17 16 16 15 14 14 14 14 15
7 9 9 10 11 12 13 13 13 14 14 13 13 13 12 12 12 12 13 12 10 9 8 8 8 8 7 6 5 4 3 3 6 7 6 4 4 5 5 5 5 5 4 4 3 3 2 3 3 4 5 6 7 8 9 9 9 9 8 8 8 8 9 10 10 10 11 11 12 13 13 14 14 15 15 16 16 16 16 16 15 14 14 14 14 15
8 9 10 10 11 11 12 13 14 14 15 14 14 13 12 11 11 11 12 12 11 10 9 8 8 8 7 8 8 7 6 5 7 9 8 5 4 4 5 5 5 5 5 4 4 4 4 5 6 7 8 8 8 8 8 8 8 8 7 7 8 9 10 11 11 11 11 12 12 12 12 12 13 13 14 14 14 15 15 15 15 15 14 14 14 15
8 8 8 8 9 9 10 11 12 13 14 14 13 13 11 10 9 9 10 10 11 11 10 8 7 7 7 7 7 7 7 5 7 9 8 5 4 4 5 5 5 5 5 5 5 6 7 8 8 8 8 8 8 7 7 7 7 7 7 8 9 10 10 11 10 10 11 11 11 11 11 11 12 12 12 13 13 13 13 14 14 14 14 14 14 14
8 8 8 8 8 8 9 9 10 11 11 11 11 11 10 9 8 9 9 9 9 10 11 11 10 8 7 6 6 6 6 4 5 7 7 5 4 4 5 5 5 5 5 5 6 6 6 8 8 8 8 9 8 8 6 6 6 6 8 8 9 10 10 10 10 10 11 11 11 10 10 10 10 11 11 12 12 12 12 12 12 13 14 14 15 15
8 9 9 9 8 8 9 9 9 9 9 8 9 9 9 8 8 9 9 9 10 10 11 11 12 12 11 9 8 7 6 4 5 6 7 6 5 5 5 6 6 5 5 6 6 6 7 8 8 9 9 9 8 7 5 5 5 6 7 8 8 9 9 10 10 10 10 10 10 10 10 10 10 10 11 11 12 12 13 12 12 13 13 14 15 16
9 9 9 9 8 8 9 9 9 8 7 7 7 7 8 8 9 10 11 11 11 11 12 12 13 13 14 13 13 12 11 9 8 8 8 8 7 7 7 7 7 7 6 7 7 7 7 8 9 9 8 8 7 6 5 5 6 7 7 8 8 9 9 9 10 10 10 10 10 10 10 10 10 11 11 11 12 12 12 13 13 13 13 14 14 16
9 9 9 8 8 8 9 9 8 8 7 7 7 7 8 9 11 12 12 13 13 13 13 14 14 15 15 15 16 16 16 15 13 13 12 12 12 10 9 9 9 8 8 8 8 8 8 8 8 8 7 7 7 7 7 8 8 8 8 9 9 9 9 9 9 9 9 10 11 11 11 11 11 11 11 11 11 11 11 11 12 12 12 12 13 14
9 9 9 8 8 8 8 7 7 7 7 8 9 10 10 10 11 12 13 14 14 14 15 15 16 16 16 16 17 17 17 17 17 17 17 16 15 14 12 11 10 9 9 8 8 8 8 8 8 8 7 8 9 9 9 8 9 9 10 10 10 10 9 8 8 9 10 10 11 11 11 10 10 10 10 10 10 10 10 10 10 10 10 11 12 13
10 10 9 9 8 8 8 7 7 8 9 10 11 11 12 11 12 12 13 14 14 14 15 16 16 16 16 16 16 16 17 17 17 17 16 16 16 15 14 12 11 10 9 9 9 9 9 9 10 10 10 9 10 10 10 10 10 10 10 10 10 9 8 8 9 10 10 10 11 10 10 10 10 10 10 10 10 10 10 10 10 10 10 10 11 11
10 10 9 9 9 9 8 9 10 10 11 11 11 10 11 10 10 10 10 11 11 11 12 13 14 14 15 15 15 15 15 15 15 15 15 14 14 14 14 13 12 10 10 10 10 10 10 10 10 11 11 11 11 12 12 12 11 11 11 11 11 11 11 11 11 11 10 10 10 10 10 10 10 10 11 11 11 11 11 11 12 12 11 11 11 12
10 10 9 9 9 9 9 10 10 10 10 10 9 9 9 8 8 8 8 8 8 8 9 9 10 10 10 11 12 13 13 13 13 13 14 13 13 13 13 13 12 11 10 10 10 11 11 11 11 11 11 11 11 12 12 12 12 11 11 12 12 13 13 12 10 9 8 9 9 9 10 10 11 11 11 12 12 12 12 12 13 13 13 13 13 13
10 9 8 8 8 8 9 9 9 9 9 8 8 8 7 7 7 8 8 7 7 7 8 8 8 8 8 9 9 9 10 12 12 12 13 13 13 13 13 13 13 12 11 10 11 11 11 12 12 12 12 12 12 12 13 13 13 12 12 12 12 12 11 10 9 8 8 9 10 10 11 11 11 12 12 12 12 13 13 14 14 15 15 14 14 15
9 9 8 8 8 8 8 8 8 7 7 7 7 7 7 7 7 8 8 7 7 7 7 7 8 8 8 8 7 7 7 8 10 11 11 12 12 13 13 13 13 13 12 12 11 11 10 11 12 12 12 12 12 13 13 14 14 13 13 12 12 12 12 12 11 11 11 11 11 11 11 11 12 12 12 13 13 13 13 14 14 14 15 15 15 16
8 8 8 8 7 7 7 7 7 6 6 6 6 7 6 6 7 7 7 7 7 7 7 6 6 6 6 7 6 6 5 6 6 8 9 10 11 11 12 13 13 13 13 13 13 12 11 11 11 11 11 11 12 13 14 14 15 15 14 13 13 13 14 14 14 13 12 12 12 12 12 11 11 12 13 13 14 14 14 14 15 15 15 15 15 16
8 8 7 7 7 7 7 7 6 6 6 6 7 7 7 7 7 8 8 8 7 7 7 6 6 6 6 6 6 5 5 5 5 6 6 7 8 9 10 12 12 13 13 13 13 14 14 13 12 12 11 12 13 14 15 15 14 15 15 14 13 13 14 14 13 13 12 12 12 12 11 11 12 12 13 14 15 15 15 15 15 15 15 15 16 16
8 8 7 7 7 7 7 7 7 6 6 7 7 7 7 7 7 7 8 8 7 7 7 7 7 7 7 7 6 5 5 5 5 5 5 6 6 7 8 10 11 12 13 14 14 15 15 15 15 14 13 12 13 14 15 15 14 14 14 14 13 13 13 13 13 12 12 12 12 12 12 11 12 13 14 15 15 15 15 15 15 15 15 15 15 16
8 8 7 7 7 7 7 7 7 7 7 7 7 7 7 7 7 7 7 7 7 7 7 6 7 7 7 7 7 6 6 6 6 6 5 6 6 6 7 8 9 11 12 13 14 15 16 17 17 17 16 15 14 15 15 15 14 14 14 13 13 13 13 13 13 12 12 13 13 13 13 12 12 13 14 15 16 16 16 15 15 15 15 15 16 16
8 8 7 7 7 7 7 7 7 7 7 7 7 7 7 7 7 7 7 7 6 6 7 7 7 7 7 7 7 7 6 7 7 6 6 6 6 6 6 6 7 8 9 11 12 13 15 16 18 19 19 18 17 17 16 15 14 14 13 13 13 13 14 14 14 13 13 13 14 14 14 14 13 13 14 15 16 17 17 17 16 16 16 16 16 17
9 8 8 8 8 8 8 8 8 8 8 8 7 7 7 7 7 7 7 7 7 7 7 7 7 7 7 7 7 7 7 7 7 7 6 6 6 5 5 6 6 6 7 8 9 10 11 13 15 17 19 20 20 19 18 16 15 14 13 13 13 13 13 14 14 13 13 13 13 14 14 14 14 13 14 15 16 18 19 18 18 17 16 15 16 16
10 9 9 9 9 9 9 9 8 8 8 8 8 7 7 7 7 7 7 7 7 8 8 8 8 8 8 8 7 7 7 7 7 7 7 6 6 5 6 6 6 6 6 7 7 7 8 8 10 12 15 17 19 20 19 17 14 13 13 13 13 13 13 13 13 13 12 12 13 13 13 13 14 14 14 14 16 17 18 19 18 17 16 15 15 16
Wind_Direction
256 250 235 307 31 49 67 76 72 57 44 43 41 45 54 62 67 73 82 101 138 171 188 196 201 208 215 225 233 240 246 251 256 261 267 271 276 279 280 281 284 287 291 294 296 297 297 294 288 281 275 269 263 260 261 264 271 279 285 291 293 294 296 295 295 294 292 290 289 289 290 291 293 294 295 296 295 294 294 294 294 293 291 290 289 289
180 154 131 111 96 82 70 85 86 77 57 43 41 44 50 58 67 83 104 137 164 181 193 201 207 212 217 226 234 240 246 250 256 262 267 271 275 277 280 283 288 293 297 300 301 300 296 289 281 275 271 267 267 269 275 281 285 288 291 292 294 295 296 296 296 294 293 291 289 288 288 288 287 288 288 289 290 290 290 291 292 290 288 287 286 284
130 128 124 119 114 110 109 93 97 99 81 62 46 44 49 57 74 130 170 173 181 193 199 203 209 214 220 228 234 239 245 250 257 265 270 273 275 279 282 287 293 297 301 303 301 297 289 280 273 269 267 268 271 277 281 283 285 288 290 292 295 297 297 297 296 294 292 291 289 287 286 285 285 284 285 285 287 289 287 288 288 288 286 285 283 280
134 131 131 130 129 130 137 127 122 122 110 86 55 46 49 65 169 205 206 206 208 214 218 222 227 232 238 244 247 250 254 259 266 272 276 279 282 285 288 292 294 297 297 297 292 283 275 271 266 264 263 267 271 276 280 283 286 290 293 295 297 298 298 298 296 294 292 290 287 285 283 282 283 284 285 285 286 288 288 287 286 286 286 284 280 276
139 141 144 140 138 145 161 158 156 155 155 134 102 82 88 216 229 232 231 229 231 238 245 249 252 257 262 266 269 270 273 276 280 282 283 285 287 288 290 290 289 287 282 277 271 266 263 259 256 258 264 268 273 278 283 287 290 293 294 295 296 298 297 296 294 292 290 288 285 283 281 281 282 283 284 284 285 286 286 286 285 285 284 283 278 275
140 146 149 148 148 158 170 166 167 174 197 219 223 225 231 242 247 252 258 258 259 263 268 272 274 276 279 281 282 283 285 285 285 285 284 282 281 279 279 277 272 265 257 253 252 249 246 244 244 251 259 267 273 279 283 286 288 290 292 293 294 294 294 292 290 288 286 284 283 281 280 280 280 281 281 282 283 284 284 284 284 283 283 282 279 276
143 148 149 150 150 149 139 142 165 179 226 273 277 276 273 268 268 273 276 278 278 279 282 283 284 286 288 288 287 288 288 288 288 286 283 279 274 269 263 256 249 241 234 230 231 231 234 237 242 248 254 262 269 274 278 283 285 286 287 289 289 289 288 287 285 283 281 280 279 278 277 277 277 277 278 279 280 281 281 282 281 281 281 280 278 276
144 149 146 148 146 139 134 148 190 187 228 307 310 304 298 297 296 294 290 285 283 284 285 288 291 292 291 289 288 288 286 287 290 293 292 289 284 275 261 248 238 230 224 222 224 229 235 239 245 251 255 261 266 270 275 278 281 282 284 285 286 286 285 283 281 278 276 274 273 273 273 273 273 274 275 276 277 279 279 279 279 278 278 277 276 274
143 145 145 145 143 140 137 151 283 285 241 247 308 309 307 309 310 309 303 300 295 290 283 286 292 295 290 287 286 280 271 259 262 276 281 296 297 279 257 247 239 233 230 230 233 238 243 247 251 256 261 265 269 272 275 278 280 282 284 286 287 286 285 282 278 274 271 270 269 269 269 269 270 272 273 275 276 277 277 277 276 276 275 274 273 273
139 139 136 137 138 135 126 119 107 313 58 72 87 140 272 280 289 261 210 184 296 308 286 202 203 272 293 292 284 276 267 259 252 244 233 236 236 236 242 243 243 244 244 245 247 250 253 257 260 264 267 271 274 276 278 281 283 285 287 288 288 287 284 280 276 271 268 267 266 266 267 267 268 270 272 273 274 274 274 274 273 273 272 271 271 271
136 134 131 130 130 126 118 117 111 89 78 74 89 123 140 7 328 296 238 194 179 178 296 245 248 259 272 276 278 277 273 273 271 267 260 256 253 252 255 255 256 257 258 258 259 261 262 265 267 270 272 275 277 280 282 284 286 287 288 289 287 285 281 277 272 269 266 264 264 264 266 267 268 270 271 272 272 272 271 271 270 270 269 269 269 269
133 132 133 132 130 125 117 113 98 86 89 116 159 166 154 127 50 319 301 273 235 179 281 279 272 266 264 265 269 273 273 272 271 271 272 271 269 267 266 266 267 267 267 267 267 267 269 270 271 273 275 278 280 282 284 286 287 288 288 287 285 282 277 272 268 265 264 263 263 263 265 266 267 269 269 269 269 269 269 268 267 267 267 267 267 267
130 133 135 137 136 137 137 139 145 149 160 176 182 167 139 134 179 253 295 288 280 277 273 283 281 275 271 268 269 270 270 268 267 267 270 272 270 269 268 269 271 272 272 273 273 274 275 276 277 278 280 282 283 285 286 287 287 287 286 284 281 278 273 268 264 261 261 261 261 262 264 265 266 266 266 267 267 267 267 266 266 266 266 266 266 265
137 144 147 151 152 152 156 162 169 174 172 158 124 83 87 247 242 247 267 277 276 273 273 277 272 273 278 273 269 269 269 269 271 272 269 267 265 266 268 269 272 274 276 278 278 279 279 281 282 284 285 286 287 288 288 288 288 286 284 281 278 274 270 265 261 259 258 259 261 263 265 265 266 265 265 264 265 265 265 265 266 266 266 266 266 266
151 159 162 163 159 157 157 165 173 166 146 151 194 224 244 264 264 262 266 271 279 283 281 273 258 259 273 274 272 271 271 272 275 276 271 266 266 269 272 273 275 278 280 281 281 282 283 284 286 287 288 288 288 287 287 287 286 284 282 279 276 272 268 265 262 261 261 261 262 263 264 264 264 264 264 263 264 264 265 265 266 266 266 267 267 268
151 160 162 158 152 146 143 145 148 128 109 167 191 189 154 60 341 277 284 293 304 303 288 276 265 259 263 274 277 276 275 276 278 280 279 275 273 274 277 278 279 280 281 281 282 283 284 285 286 286 287 286 285 285 284 283 282 280 278 276 273 270 269 268 267 266 265 264 263 263 263 263 263 263 263 264 264 265 265 266 267 267 267 267 268 268
140 149 151 149 142 136 128 127 120 112 117 138 147 141 127 111 111 130 335 333 320 300 284 283 280 273 260 263 281 285 280 282 287 289 288 284 278 277 280 281 281 282 283 283 282 282 283 283 283 284 283 283 283 283 282 280 278 276 273 270 267 265 266 265 264 264 263 262 262 262 263 263 263 263 263 264 265 266 266 267 267 267 267 268 268 268
135 140 146 144 138 130 125 123 124 126 131 122 117 121 136 153 163 149 349 327 307 291 286 280 278 278 282 277 285 293 290 294 299 300 293 287 281 279 281 283 284 285 286 285 283 282 281 280 279 278 278 278 279 279 278 276 274 272 269 265 260 257 256 256 256 257 257 258 260 262 263 263 264 264 265 265 266 266 267 267 268 268 268 268 268 268
141 144 146 142 137 132 131 129 130 134 134 129 122 110 87 50 329 328 314 301 293 290 289 283 275 273 277 283 292 295 293 295 301 301 292 287 284 281 282 285 288 290 290 287 284 281 280 279 280 280 279 278 277 276 274 273 270 268 265 262 259 256 254 254 254 254 255 255 256 258 260 262 263 264 265 266 266 267 267 268 268 268 268 268 268 269
147 149 147 142 142 145 149 147 144 142 147 151 151 144 142 276 289 279 271 281 284 285 283 280 276 273 273 278 288 294 293 298 303 301 291 287 284 281 282 286 291 294 291 287 284 283 283 285 287 287 285 281 277 273 270 268 266 264 262 261 259 258 257 257 258 258 259 259 259 259 260 261 262 263 265 266 266 267 267 268 268 268 268 268 268 269
149 151 148 147 153 159 160 150 143 147 166 169 162 185 250 267 267 266 271 278 280 279 277 273 272 274 277 282 286 291 293 300 305 302 293 289 285 280 278 285 292 296 293 290 288 288 289 292 294 294 291 284 277 270 266 264 262 260 259 258 258 258 259 260 262 263 264 264 264 264 264 264 264 264 265 266 266 267 267 268 268 268 268 268 268 268
147 146 142 144 149 149 143 142 148 167 215 193 130 245 272 281 285 286 287 289 287 281 277 276 276 280 281 281 281 286 293 298 300 296 294 291 285 279 277 290 299 302 296 294 292 292 294 297 299 298 294 286 277 268 263 260 259 258 257 257 257 258 260 262 264 266 267 267 267 267 266 265 265 265 265 265 265 266 266 266 267 266 267 267 267 268
144 144 145 149 151 151 149 154 177 222 266 220 226 264 265 280 291 294 296 295 292 288 285 283 283 285 285 282 281 285 294 299 299 294 289 284 284 284 283 298 306 306 297 296 297 297 297 299 301 300 297 287 276 267 261 258 256 254 255 255 256 258 260 262 264 265 265 264 264 263 261 261 261 261 262 263 263 264 264 264 264 265 265 266 266 267
143 144 146 154 165 169 165 166 199 266 287 278 265 263 262 269 274 280 286 287 287 286 286 286 286 284 281 280 278 281 290 300 304 297 278 278 282 286 292 302 306 304 299 300 301 302 302 303 304 303 299 289 279 269 261 256 252 251 251 251 253 254 255 256 256 256 255 254 253 254 254 254 255 256 257 258 260 260 261 262 263 264 265 266 266 267
144 146 148 155 164 168 161 164 241 307 316 310 299 291 286 284 284 285 285 283 281 279 280 280 278 273 269 262 254 257 271 291 302 297 268 276 283 286 291 297 302 303 302 304 307 307 306 304 302 299 294 287 280 272 258 247 241 237 237 235 236 238 240 242 243 244 245 247 248 249 251 253 253 255 256 257 258 259 261 262 264 265 266 267 268 269
144 141 141 142 147 152 158 161 158 80 345 333 319 308 299 295 292 290 286 279 271 267 269 270 271 272 270 265 257 254 261 281 293 294 274 276 283 287 288 294 302 306 306 307 310 311 306 299 293 288 281 280 279 270 246 224 213 212 216 221 226 230 235 238 240 243 245 248 250 252 254 255 256 257 259 260 261 262 263 264 265 267 268 269 270 271
149 151 154 162 169 177 185 199 213 236 266 298 304 300 297 291 286 279 269 263 260 261 266 270 274 277 277 270 263 260 263 277 286 288 279 271 276 283 287 297 307 311 310 309 310 309 302 292 285 280 272 273 275 265 239 222 215 214 219 226 232 237 241 244 248 251 253 255 257 258 259 260 260 261 262 262 263 264 265 265 267 268 269 270 272 272
176 187 195 205 215 228 243 254 260 264 267 268 272 277 283 281 275 269 267 265 266 266 267 269 274 279 280 277 276 276 274 272 277 282 282 267 262 274 285 301 311 314 313 312 311 308 298 284 275 270 265 265 266 260 245 233 229 229 234 241 246 251 255 258 260 262 262 263 263 264 263 263 263 263 263 263 263 264 265 266 267 268 270 271 272 272
225 235 243 250 256 261 266 269 271 271 270 270 269 270 272 270 266 264 266 269 269 268 266 266 269 272 276 280 284 284 277 264 268 278 283 264 256 270 289 304 313 317 318 317 314 308 289 272 268 270 265 264 260 255 252 248 250 256 261 266 268 268 268 268 269 268 268 267 266 265 265 264 264 263 262 262 262 263 263 264 267 269 271 271 271 270
252 258 263 266 267 268 269 270 270 270 270 271 271 270 269 265 261 259 261 264 262 261 260 262 264 267 273 280 285 284 274 255 260 273 281 258 261 280 297 306 311 317 325 326 322 313 293 272 276 288 293 293 287 280 276 278 280 283 284 283 281 279 275 273 271 270 269 268 267 266 265 264 264 263 263 262 262 261 261 262 265 267 269 270 269 268
258 263 270 273 273 272 271 271 272 273 274 275 277 277 274 270 263 257 255 253 251 251 253 256 258 260 263 269 275 277 268 245 260 275 286 260 268 288 299 302 305 313 326 332 328 319 314 305 300 308 314 308 298 291 286 285 287 289 291 293 293 291 286 282 278 276 275 274 272 271 269 268 267 265 264 263 262 262 261 261 262 265 267 268 268 267
266 270 274 277 278 279 279 280 281 284 286 287 287 285 280 274 266 259 253 248 245 243 246 249 252 253 252 250 251 258 271 256 267 277 286 274 274 284 290 293 297 304 312 315 308 299 301 305 305 305 303 297 292 288 286 286 288 291 295 298 300 300 301 300 298 295 291 289 286 282 279 276 273 270 268 266 264 263 262 260 260 261 264 265 266 266
272 276 278 279 281 283 286 289 291 293 294 294 291 287 281 273 265 257 252 248 243 239 237 242 246 247 247 246 248 254 265 264 270 276 281 276 272 277 283 287 291 296 299 297 286 277 276 284 293 298 298 295 292 289 287 285 286 288 292 295 295 297 302 306 306 304 302 300 297 294 291 287 283 279 275 272 269 267 264 262 259 258 258 261 263 264
272 276 277 279 280 282 286 291 294 295 294 292 288 283 276 268 259 253 249 246 243 238 234 234 239 243 245 246 248 253 261 263 269 274 278 269 262 270 280 284 287 290 294 292 286 280 277 279 285 293 298 299 296 290 284 279 278 280 286 289 292 295 298 302 303 301 300 300 299 298 298 296 293 290 286 283 280 276 272 267 262 257 255 256 259 262
272 274 275 276 278 281 285 288 289 288 287 284 280 275 269 261 254 249 246 244 242 240 237 234 233 236 240 246 249 253 259 258 266 272 276 263 256 266 277 278 279 283 286 287 287 286 284 283 286 292 298 301 299 293 282 273 272 277 285 290 294 297 297 298 297 296 295 295 294 294 294 294 293 291 289 287 285 284 280 275 268 262 257 256 256 258
273 274 275 275 276 280 284 285 283 279 275 270 267 265 260 254 250 247 246 244 243 242 241 240 238 237 238 240 245 251 256 260 266 271 272 264 258 261 268 271 273 278 281 282 282 283 285 287 289 291 293 294 294 291 285 277 278 283 287 290 292 293 293 293 292 291 290 289 288 288 288 288 287 286 285 284 285 285 285 282 277 271 264 259 255 255
272 273 274 274 275 278 283 284 280 272 260 254 255 256 253 249 247 247 248 247 247 246 246 246 246 245 245 245 247 249 252 255 260 263 263 259 258 258 262 266 269 272 273 275 277 280 283 286 290 290 286 282 282 286 291 293 293 292 289 290 290 289 287 286 285 284 284 283 283 284 285 286 285 285 285 284 284 284 284 283 282 279 274 268 262 257
272 272 273 274 275 278 281 280 274 262 250 242 242 245 247 247 248 248 249 250 250 250 251 252 253 253 253 253 254 255 256 256 257 259 260 259 257 256 258 263 266 266 265 266 269 274 277 280 284 286 284 281 280 283 290 295 296 295 293 293 292 289 286 284 282 281 280 281 282 283 284 284 285 285 285 285 284 283 281 280 280 279 278 275 271 267
272 272 272 273 274 275 275 271 263 253 245 241 242 244 245 247 250 252 253 254 256 256 256 257 258 259 260 260 260 261 262 262 262 262 262 262 260 257 255 257 261 262 262 261 261 263 266 268 271 275 281 284 286 288 289 291 293 295 297 298 295 291 285 284 282 281 281 281 282 283 283 283 283 283 283 284 283 282 281 280 278 276 274 273 273 272
272 272 272 272 271 269 266 260 254 250 249 249 249 248 249 251 255 258 261 263 264 265 265 265 265 265 265 265 265 265 265 265 266 266 266 265 263 259 255 253 254 257 259 259 257 257 257 259 263 266 271 277 282 286 288 288 288 291 296 298 296 292 289 287 285 282 281 279 279 279 280 282 282 282 282 281 281 279 279 279 278 276 274 273 273 273
272 273 273 271 268 264 258 257 258 259 260 260 260 260 259 259 262 265 267 269 270 271 273 273 274 274 274 273 271 270 269 269 269 269 269 267 265 261 256 251 250 251 254 255 256 255 253 256 260 264 267 271 277 281 282 283 284 287 289 289 289 289 290 288 285 281 278 276 276 277 278 281 282 282 281 280 278 276 276 276 276 276 274 271 270 271
271 271 270 269 266 263 262 262 264 267 270 270 269 268 266 263 261 262 263 265 264 264 266 269 272 274 274 276 277 277 277 276 275 274 272 270 267 262 256 251 247 246 248 251 253 253 252 253 256 260 264 268 274 278 280 281 282 283 284 284 287 291 293 289 283 278 275 275 276 278 279 280 281 281 280 279 277 276 276 274 273 273 272 270 268 266
268 267 266 263 261 261 264 264 265 267 270 271 269 267 263 260 257 256 257 259 258 258 259 261 263 266 268 268 268 269 274 280 281 279 276 273 268 262 256 249 245 242 243 246 250 253 253 254 255 256 260 266 270 273 277 280 282 282 279 280 285 289 291 288 285 283 280 278 278 279 279 279 280 279 279 278 277 276 276 274 274 272 269 267 265 264
266 265 262 259 257 258 260 259 258 259 261 261 260 259 258 256 255 255 255 255 255 256 257 260 263 266 267 265 261 255 253 267 277 280 277 274 269 261 253 247 243 241 241 242 245 250 254 256 255 256 258 262 265 268 272 276 279 279 278 278 278 278 276 280 284 286 283 281 279 278 277 277 279 280 280 278 277 276 275 274 272 270 268 266 264 263
263 262 259 256 254 251 248 246 248 250 252 253 255 255 254 254 253 252 251 252 254 254 253 254 258 260 259 255 252 246 239 241 255 269 274 275 270 262 253 246 241 239 240 241 243 247 251 255 257 259 260 260 261 263 266 271 275 277 277 276 274 273 271 275 279 280 279 279 278 277 276 277 279 281 281 280 279 278 277 275 273 271 269 267 264 263
258 257 254 251 247 245 242 243 244 247 248 252 255 256 256 256 254 252 249 250 251 251 250 248 247 249 251 253 252 248 244 242 243 248 255 262 265 262 255 249 244 241 240 242 244 246 248 251 255 259 263 264 263 262 263 265 269 272 274 274 274 273 274 274 274 274 274 275 276 276 277 278 280 281 281 281 281 280 278 275 273 271 270 268 266 264
255 254 251 248 245 245 244 245 245 246 248 251 254 256 258 257 255 253 250 249 248 247 248 246 244 244 248 251 252 252 252 252 251 249 245 244 246 249 250 250 249 248 246 246 247 249 250 251 252 254 257 261 263 264 263 263 263 266 269 272 273 273 274 273 273 272 272 272 273 274 276 279 279 280 280 282 282 282 280 277 275 272 271 269 268 266
254 252 250 248 247 246 246 244 245 246 249 252 254 256 256 254 251 249 248 246 244 243 242 242 242 244 247 249 249 250 252 255 257 256 252 249 246 246 246 248 250 252 253 254 254 254 254 254 252 250 249 251 256 262 264 263 262 263 266 268 270 271 272 272 273 272 272 271 270 271 274 274 275 276 280 283 284 283 282 280 278 276 273 270 269 268
252 250 249 249 248 248 247 245 246 247 250 253 254 255 254 254 251 248 245 243 241 240 240 240 242 245 248 249 250 249 250 253 255 256 254 251 249 247 248 250 254 257 259 260 261 260 260 259 256 251 247 245 247 253 260 262 262 263 264 265 266 267 270 272 273 273 271 271 271 272 273 270 269 272 277 281 282 283 284 282 280 278 275 272 270 268
250 248 248 248 248 248 249 249 249 250 252 253 254 254 253 251 250 248 245 242 240 240 240 241 243 247 250 251 251 249 249 250 252 253 252 250 247 248 250 252 257 262 266 267 266 264 265 265 261 256 251 246 244 246 251 257 261 263 263 263 263 264 267 270 272 273 272 272 273 273 272 269 268 270 273 276 279 281 283 282 281 279 276 273 270 268
251 250 249 248 248 249 250 250 251 253 253 254 256 256 254 251 247 244 242 240 239 240 242 242 243 246 249 252 253 251 248 248 250 251 250 249 247 248 251 254 257 262 268 272 272 272 272 273 271 266 258 247 242 243 244 248 254 260 262 262 263 264 266 269 272 273 273 274 274 275 274 272 271 271 271 273 276 280 282 282 281 280 278 276 274 272